Location: Poughquag
(41.6090°N, 73.6820°W)
Time: 00:59:38
(UTC-05:00)

Transit 4A - All Passes

Search period start: 29 November 2023 00:00
Search period end: 09 December 2023 00:00
Orbit: 864 x 979 km, 66.8° (Epoch: 28 November)

Date Brightness Start Highest point End Pass type
(mag) Time Alt. Az. Time Alt. Az. Time Alt. Az.
29 Nov - 03:58:44 10° N 04:01:26 13° NNE 04:04:05 10° ENE visible
29 Nov - 05:43:20 10° NNW 05:49:20 52° NE 05:55:07 10° SE visible
29 Nov - 07:30:23 10° NW 07:35:16 26° WSW 07:40:02 10° SSW daylight
29 Nov - 20:49:19 10° SSW 20:55:40 69° ESE 21:02:00 10° NE night (unlit)
29 Nov - 22:37:22 10° W 22:42:35 26° NW 22:47:47 10° N night (unlit)
30 Nov - 04:07:11 10° N 04:11:04 17° NE 04:14:51 10° ENE visible
30 Nov - 05:52:22 10° NNW 05:58:31 75° ENE 06:04:26 10° SE visible
30 Nov - 07:40:23 10° WNW 07:44:05 17° WSW 07:47:43 10° SW daylight
30 Nov - 19:15:26 10° SE 19:19:12 16° ESE 19:22:58 10° ENE night (unlit)
30 Nov - 20:58:21 10° SSW 21:04:46 84° WNW 21:11:10 10° NNE night (unlit)
30 Nov - 22:47:37 10° W 22:52:05 19° NW 22:56:31 10° N night (unlit)
01 Dec - 04:15:52 10° N 04:20:35 22° NE 04:25:11 10° E visible
01 Dec - 06:01:31 10° NNW 06:07:37 76° WSW 06:13:30 10° SSE visible
01 Dec - 07:52:07 10° W 07:52:50 10° W 07:53:32 10° WSW daylight
01 Dec - 19:23:00 10° SSE 19:28:02 25° ESE 19:33:02 10° NE night (unlit)
01 Dec - 21:07:37 10° SW 21:13:57 60° NW 21:20:14 10° NNE night (unlit)
01 Dec - 22:58:13 10° WNW 23:01:40 15° NW 23:05:06 10° N night (unlit)
02 Dec - 04:24:41 10° NNW 04:30:01 30° NE 04:35:12 10° ESE visible
02 Dec - 06:10:47 10° NW 06:16:39 51° WSW 06:22:19 10° S visible
02 Dec - 19:31:10 10° S 19:36:55 36° ESE 19:42:40 10° NE visible
02 Dec - 21:17:09 10° WSW 21:23:12 43° NW 21:29:13 10° NNE night (unlit)
02 Dec - 23:09:26 10° NW 23:11:20 11° NNW 23:13:14 10° NNW night (unlit)
03 Dec - 02:49:52 10° NNE 02:51:10 11° NNE 02:52:29 10° NE visible
03 Dec - 04:33:35 10° NNW 04:39:22 41° NE 04:44:57 10° ESE visible
03 Dec - 06:20:12 10° NW 06:25:34 34° WSW 06:30:48 10° S visible
03 Dec - 19:39:42 10° S 19:45:53 54° ESE 19:52:03 10° NE visible
03 Dec - 21:26:56 10° WSW 21:32:33 31° NW 21:38:06 10° NNE night (unlit)
04 Dec - 02:57:47 10° N 03:00:52 14° NNE 03:03:54 10° ENE visible
04 Dec - 04:42:34 10° NNW 04:48:37 59° NE 04:54:27 10° SE visible
04 Dec - 06:29:53 10° WNW 06:34:26 23° WSW 06:38:53 10° SSW visible
04 Dec - 18:07:25 10° ESE 18:09:36 12° E 18:11:47 10° E visible
04 Dec - 19:48:33 10° SSW 19:54:56 78° ESE 20:01:18 10° NNE visible
04 Dec - 21:36:58 10° W 21:41:58 23° NW 21:46:55 10° N night (unlit)
05 Dec - 03:06:19 10° N 03:10:27 18° NE 03:14:30 10° E visible
05 Dec - 04:51:39 10° NNW 04:57:47 84° ENE 05:03:41 10° SSE visible
05 Dec - 06:40:07 10° WNW 06:43:13 15° WSW 06:46:18 10° SW daylight
05 Dec - 18:14:08 10° SE 18:18:22 19° ESE 18:22:36 10° ENE visible
05 Dec - 19:57:38 10° SW 20:04:03 76° WNW 20:10:25 10° NNE visible
05 Dec - 21:47:19 10° W 21:51:29 18° NW 21:55:37 10° N night (unlit)
06 Dec - 03:15:02 10° N 03:19:58 24° NE 03:24:44 10° E visible
06 Dec - 05:00:49 10° NW 05:06:51 67° WSW 05:12:40 10° SSE visible
06 Dec - 18:21:56 10° SSE 18:27:13 28° ESE 18:32:29 10° NE visible
06 Dec - 20:07:00 10° SW 20:13:14 54° NW 20:19:27 10° NNE visible
06 Dec - 21:58:04 10° WNW 22:01:06 14° NNW 22:04:06 10° N night (unlit)
07 Dec - 03:23:53 10° NNW 03:29:21 33° NE 03:34:40 10° ESE visible
07 Dec - 05:10:07 10° NW 05:15:50 45° WSW 05:21:23 10° S visible
07 Dec - 18:30:13 10° S 18:36:08 41° ESE 18:42:01 10° NE visible
07 Dec - 20:16:36 10° WSW 20:22:31 38° NW 20:28:24 10° NNE visible
07 Dec - 22:09:49 10° NW 22:10:48 10° NNW 22:11:46 10° NNW night (unlit)
08 Dec - 01:48:37 10° N 01:50:37 12° NNE 01:52:36 10° NE visible
08 Dec - 03:32:48 10° NNW 03:38:40 46° NE 03:44:19 10° SE visible
08 Dec - 05:19:36 10° NW 05:24:45 30° WSW 05:29:46 10° SSW visible
08 Dec - 18:38:51 10° SSW 18:45:07 60° ESE 18:51:22 10° NE visible
08 Dec - 20:26:28 10° WSW 20:31:53 28° NW 20:37:16 10° NNE visible
